SCOUT X-4 DEB, 732

Orbit data source: Space-Track

SCOUT X-4 DEB, 732 is space debris in LEO originally from a launch on Thu, 19 Dec 1963 UTC launched from the Air Force Western Test Range (AFWTR). Debris objects in space refer to the collection of defunct objects orbiting the Earth. Examples of debris include non-operational satellites, rocket bodies, and fragments generated from explosions, collisions, or faulty payload assembly.

Loading next visibility...
Identifier
732, 1963-053H
Orbit
LEO
Last TLE update
23 hours ago
Origin
Manufacturer
Unknown
Mission
Spacecraft
Bus & Motor
Unknown
Mass
Unknown
Launch date (UTC)
1963-12-19 (62 years ago)
Launch vehicle
Unknown
Launch site
Air Force Western Test Range (AFWTR)
Object type
Payload
Rocket body
Debris
Shape & HBR
Unknown
Radar Cross Section
Small (<0.1 m²)

Expand to show TLE details & history

TLE from 23 hours ago
0 SCOUT X-4 DEB
1 00732U 63053H   25181.76647546  .00006308  00000-0  19283-2 0  9993
2 00732  78.5576 306.9286 0433430 234.1967 121.8184 13.99094704925866
Epoch: 2025-06-30T18:23Z
TLE epoch observation values (Epoch: 2025-06-30T18:23:43.479Z)
Latitude
-0.00002°
Longitude
111.92586°
Altitude
1,075.528 km
Speed
7.226 km/s
True Right ascension
20h 27m 42s
True Declination
0° 00' 00"
Sunlit
Object was in full shadow at epoch
Visualization orbit readout
Latitude
-35.593°
Longitude
-61.00757°
Altitude
605.496 km
Speed
7.712 km/s
Apparent Right ascension
12h 36m 32s
Apparent Declination
-59° 40' 48"
Sunlit
Object is in daylight
Visualization observer readout
Local Sidereal Time
05:25:23
Azimuth
139.515° SSE
Elevation
-42.235°
Doppler factor
1
Orbital elements
Apogee altitude
1,209.467 km
Perigee altitude
579.052 km
Semi-major axis
7,272.397 km
Eccentricity
0.04334
Inclination
78.5576°
RAAN
306.9286°
Arg. of periapsis
234.1967°
True anomaly
Unknown
Mean anomaly
121.8184°
Eccentric anomaly
Unknown
Mean motion
3.49967 °/min
Orbital period
102.87 mins
BSTAR
0.0019283
Loading maneuver chart data...
Loading SW <> Apogee altitude chart data...
Loading historical data...
Loading historical data...
Loading historical data...
Loading historical data...
Loading historical data...
Loading historical data...
Loading historical data...

SCOUT X-4 DEB Visibility forecast

Observer location: undefined°, undefined°

Span
Click to sort rows by Start time (UTC) header in descending order
Start Az.
Max El. time (UTC)
Max El. Az.
Max El.
End time (UTC)
End Az.
9 mins2025-07-01 19:01:44.422Z7.836° NNE2025-07-01 19:06:44.422Z66.986° ENE27.597°2025-07-01 19:10:44.422Z122.458° SE
9 mins2025-07-01 20:46:44.422Z324.53° NNW2025-07-01 20:50:44.422Z272.973° WNW29.819°2025-07-01 20:55:44.422Z204.363° SW
11 mins2025-07-02 08:16:44.422Z147.704° SSE2025-07-02 08:21:44.422Z86.098° E31.624°2025-07-02 08:27:44.422Z29.882° NE
12 mins2025-07-02 09:59:44.422Z224.25° SW2025-07-02 10:05:44.422Z293.61° NW34.417°2025-07-02 10:11:44.422Z357.164° N
|